WZZ65GB EPWA-LEBB

Flight info

Callsign WZZ65GB
Flight time 3h 0m
Altitude 36000
Route SOXER N869 TOMTI DCT ASTEL DCT KONAR DCT OKG DCT AMOSA N869 TEDGO/N0440F350 N869 NATOR DCT LUTIX DCT BENOT DCT NEMOS DCT NINTU DCT MEBAK DCT REPSI DCT LERGA DCT MINSO DCT NARAK DCT AGN DCT DIGPO/N0390F270 DCT ERAKI DCT PPN M601 CEGAM
Aircraft A21N/M-SDE2E3FGHIRWXY/LB1

Departure

Time 2026-05-04 04:23
Airport Warsaw Chopin Airport (EPWA)

Arrival

Time 2026-05-04 07:23
Airport Bilbao Airport (LEBB)
Time Latitude Longitude Altitude Speed Heading
2026-05-04 03:38 52.17624 20.96700 366 ft 0 kts 237°
2026-05-04 04:12 52.17624 20.96701 366 ft 0 kts 237°
2026-05-04 04:13 52.17630 20.96713 366 ft 2 kts 237°
2026-05-04 04:13 52.17638 20.96734 366 ft 1 kts 221°
2026-05-04 04:13 52.17651 20.96740 366 ft 2 kts 162°
2026-05-04 04:13 52.17659 20.96732 366 ft 0 kts 137°
2026-05-04 04:17 52.17658 20.96733 366 ft 0 kts 137°
2026-05-04 04:17 52.17650 20.96747 366 ft 3 kts 137°
2026-05-04 04:18 52.17630 20.96775 366 ft 3 kts 146°
2026-05-04 04:18 52.17599 20.96771 366 ft 6 kts 204°
2026-05-04 04:18 52.17560 20.96714 366 ft 8 kts 237°
2026-05-04 04:18 52.17524 20.96626 366 ft 9 kts 237°
2026-05-04 04:19 52.17481 20.96534 366 ft 10 kts 229°
2026-05-04 04:19 52.17442 20.96435 366 ft 10 kts 244°
2026-05-04 04:19 52.17462 20.96338 366 ft 10 kts 330°
2026-05-04 04:19 52.17530 20.96279 366 ft 11 kts 331°
2026-05-04 04:20 52.17604 20.96214 366 ft 12 kts 332°
2026-05-04 04:20 52.17684 20.96144 366 ft 13 kts 332°
2026-05-04 04:20 52.17767 20.96072 366 ft 13 kts 332°
2026-05-04 04:20 52.17829 20.95959 366 ft 13 kts 303°
2026-05-04 04:21 52.17882 20.95827 366 ft 14 kts 303°
2026-05-04 04:21 52.17882 20.95689 366 ft 12 kts 242°
2026-05-04 04:21 52.17816 20.95634 366 ft 10 kts 171°
2026-05-04 04:21 52.17749 20.95686 366 ft 11 kts 152°
2026-05-04 04:22 52.17623 20.95796 366 ft 44 kts 152°
2026-05-04 04:22 52.17126 20.96228 366 ft 115 kts 152°
2026-05-04 04:22 52.16241 20.97001 371 ft 171 kts 152°
2026-05-04 04:22 52.15139 20.97974 844 ft 183 kts 153°
2026-05-04 04:23 52.14054 20.98963 1635 ft 182 kts 158°
2026-05-04 04:23 52.12962 20.99925 2329 ft 179 kts 160°
2026-05-04 04:23 52.11787 21.00608 2626 ft 184 kts 184°
2026-05-04 04:23 52.10575 21.00008 2928 ft 189 kts 216°
2026-05-04 04:24 52.09466 20.98726 3219 ft 206 kts 216°
2026-05-04 04:24 52.08208 20.97362 3518 ft 226 kts 215°
2026-05-04 04:24 52.06856 20.95925 3933 ft 241 kts 214°
2026-05-04 04:24 52.05442 20.94428 4589 ft 246 kts 214°
2026-05-04 04:25 52.04161 20.92626 5264 ft 249 kts 235°
2026-05-04 04:25 52.03529 20.90055 5931 ft 255 kts 260°
2026-05-04 04:25 52.03443 20.87170 6619 ft 260 kts 266°
2026-05-04 04:25 52.03384 20.84211 7281 ft 263 kts 265°
2026-05-04 04:26 52.03318 20.81249 7999 ft 266 kts 266°
2026-05-04 04:26 52.03249 20.78282 8661 ft 269 kts 266°
2026-05-04 04:26 52.03178 20.75245 9331 ft 271 kts 266°
2026-05-04 04:26 52.03106 20.72219 9954 ft 274 kts 266°
2026-05-04 04:27 52.03031 20.69084 10479 ft 282 kts 266°
2026-05-04 04:27 52.02951 20.65841 10758 ft 297 kts 266°
2026-05-04 04:27 52.02866 20.62427 11162 ft 307 kts 266°
2026-05-04 04:27 52.02780 20.58950 11784 ft 310 kts 266°
2026-05-04 04:28 52.02709 20.55483 12425 ft 312 kts 268°
2026-05-04 04:28 52.02759 20.52000 13015 ft 314 kts 271°
2026-05-04 04:28 52.02863 20.48430 13611 ft 317 kts 271°
2026-05-04 04:28 52.02970 20.44872 14185 ft 319 kts 271°
2026-05-04 04:29 52.03076 20.41291 14737 ft 322 kts 272°
2026-05-04 04:29 52.03184 20.37622 15311 ft 324 kts 272°
2026-05-04 04:29 52.03288 20.34020 15851 ft 327 kts 271°
2026-05-04 04:29 52.03395 20.30300 16403 ft 329 kts 271°
2026-05-04 04:30 52.03499 20.26635 16924 ft 331 kts 271°
2026-05-04 04:30 52.03602 20.22915 17431 ft 333 kts 271°
2026-05-04 04:30 52.03707 20.19124 17938 ft 336 kts 271°
2026-05-04 04:30 52.03811 20.15322 18432 ft 338 kts 271°
2026-05-04 04:31 52.03912 20.11533 18890 ft 341 kts 271°
2026-05-04 04:31 52.04013 20.07721 19325 ft 344 kts 271°
2026-05-04 04:31 52.04114 20.03844 19759 ft 346 kts 271°
2026-05-04 04:31 52.04216 19.99899 20179 ft 349 kts 271°
2026-05-04 04:32 52.04232 19.95982 20586 ft 352 kts 266°
2026-05-04 04:32 52.03906 19.92049 20997 ft 354 kts 258°
2026-05-04 04:32 52.03231 19.88158 21411 ft 357 kts 252°
2026-05-04 04:32 52.02426 19.84376 21806 ft 359 kts 251°
2026-05-04 04:33 52.01589 19.80543 22186 ft 362 kts 251°
2026-05-04 04:33 52.00752 19.76720 22557 ft 365 kts 251°
2026-05-04 04:33 51.99896 19.72804 22923 ft 368 kts 251°
2026-05-04 04:33 51.99048 19.68922 23288 ft 370 kts 251°
2026-05-04 04:34 51.98181 19.64953 23645 ft 373 kts 251°
2026-05-04 04:34 51.97320 19.61021 23931 ft 375 kts 251°
2026-05-04 04:34 51.96447 19.57036 23945 ft 375 kts 251°
2026-05-04 04:34 51.95578 19.53073 23951 ft 375 kts 251°
2026-05-04 04:35 51.94706 19.49113 23955 ft 374 kts 251°
2026-05-04 04:35 51.93843 19.45198 23956 ft 374 kts 251°
2026-05-04 04:35 51.92963 19.41207 23953 ft 374 kts 251°
2026-05-04 04:35 51.92090 19.37260 24089 ft 377 kts 251°
2026-05-04 04:36 51.91208 19.33281 24509 ft 378 kts 250°
2026-05-04 04:36 51.90322 19.29294 24893 ft 379 kts 250°
2026-05-04 04:36 51.89426 19.25259 25227 ft 381 kts 250°
2026-05-04 04:36 51.88526 19.21222 25547 ft 384 kts 250°
2026-05-04 04:37 51.85792 19.08939 26518 ft 389 kts 251°
2026-05-04 04:37 51.84894 19.04818 26818 ft 392 kts 251°
2026-05-04 04:38 51.83997 19.00703 27108 ft 393 kts 251°
2026-05-04 04:38 51.83079 18.96505 27417 ft 395 kts 251°
2026-05-04 04:38 51.82171 18.92371 27697 ft 397 kts 251°
2026-05-04 04:38 51.81240 18.88147 27964 ft 399 kts 251°
2026-05-04 04:39 51.80307 18.83912 28242 ft 401 kts 251°
2026-05-04 04:39 51.79382 18.79722 28534 ft 402 kts 251°
2026-05-04 04:39 51.78442 18.75474 28817 ft 404 kts 251°
2026-05-04 04:39 51.77495 18.71203 29088 ft 406 kts 251°
2026-05-04 04:40 51.76537 18.66892 29340 ft 408 kts 251°
2026-05-04 04:40 51.75588 18.62625 29597 ft 409 kts 251°
2026-05-04 04:40 51.74624 18.58300 29868 ft 411 kts 251°
2026-05-04 04:40 51.73656 18.53971 30137 ft 412 kts 251°
2026-05-04 04:41 51.72678 18.49602 30379 ft 414 kts 251°
2026-05-04 04:41 51.71704 18.45265 30621 ft 415 kts 251°
2026-05-04 04:41 51.70730 18.40931 30867 ft 417 kts 251°
2026-05-04 04:41 51.69731 18.36494 31124 ft 418 kts 251°
2026-05-04 04:42 51.68738 18.32098 31364 ft 419 kts 250°
2026-05-04 04:42 51.67755 18.27750 31661 ft 419 kts 250°
2026-05-04 04:42 51.66752 18.23319 32016 ft 417 kts 250°
2026-05-04 04:42 51.65765 18.18979 32353 ft 416 kts 250°
2026-05-04 04:43 51.64780 18.14652 32644 ft 416 kts 250°
2026-05-04 04:43 51.63775 18.10244 32948 ft 415 kts 250°
2026-05-04 04:43 51.62797 18.05966 33273 ft 414 kts 250°
2026-05-04 04:43 51.61809 18.01650 33598 ft 413 kts 250°
2026-05-04 04:44 51.60811 17.97305 33916 ft 411 kts 250°
2026-05-04 04:44 51.59828 17.93037 34226 ft 410 kts 250°
2026-05-04 04:44 51.58847 17.88777 34538 ft 409 kts 250°
2026-05-04 04:44 51.57855 17.84481 34810 ft 408 kts 250°
2026-05-04 04:45 51.56870 17.80226 35009 ft 408 kts 250°
2026-05-04 04:45 51.55890 17.75996 35171 ft 409 kts 250°
2026-05-04 04:45 51.54900 17.71731 35333 ft 410 kts 250°
2026-05-04 04:47 51.48877 17.45957 35945 ft 414 kts 250°
2026-05-04 04:47 51.46849 17.37356 35949 ft 413 kts 250°
2026-05-04 04:48 51.44815 17.28768 35948 ft 413 kts 249°
2026-05-04 04:49 51.39700 17.07314 35957 ft 414 kts 249°
2026-05-04 04:49 51.37655 16.98791 35954 ft 414 kts 249°
2026-05-04 04:50 51.35583 16.90192 35951 ft 414 kts 249°
2026-05-04 04:50 51.33521 16.81670 35947 ft 413 kts 249°
2026-05-04 04:51 51.31439 16.73099 35945 ft 414 kts 249°
2026-05-04 04:51 51.29368 16.64605 35949 ft 414 kts 249°
2026-05-04 04:52 51.27279 16.56064 35948 ft 413 kts 249°
2026-05-04 04:52 51.25193 16.47576 35948 ft 414 kts 249°
2026-05-04 04:53 51.23083 16.39020 35947 ft 413 kts 249°
2026-05-04 04:53 51.20992 16.30572 35947 ft 414 kts 248°
2026-05-04 04:54 51.18877 16.22065 35950 ft 414 kts 248°
2026-05-04 04:54 51.16756 16.13563 35949 ft 413 kts 248°
2026-05-04 04:55 51.14631 16.05077 35952 ft 414 kts 248°
2026-05-04 04:55 51.12503 15.96612 35952 ft 414 kts 248°
2026-05-04 04:56 51.10371 15.88158 35960 ft 414 kts 248°
2026-05-04 04:56 51.08226 15.79688 35960 ft 414 kts 248°
2026-05-04 04:57 51.06078 15.71238 35959 ft 414 kts 248°
2026-05-04 04:57 51.03917 15.62771 35961 ft 414 kts 248°
2026-05-04 04:58 51.01755 15.54337 35963 ft 413 kts 248°
2026-05-04 04:58 50.99600 15.45958 35966 ft 412 kts 248°
2026-05-04 04:59 50.97430 15.37561 35969 ft 412 kts 248°
2026-05-04 04:59 50.95302 15.29153 35968 ft 412 kts 250°
2026-05-04 05:00 50.93516 15.20563 35965 ft 412 kts 251°
2026-05-04 05:01 50.90876 15.07621 35967 ft 412 kts 251°
2026-05-04 05:01 50.89109 14.99001 35967 ft 412 kts 252°
2026-05-04 05:02 50.87338 14.90405 35968 ft 413 kts 252°
2026-05-04 05:02 50.85519 14.81827 35965 ft 412 kts 250°
2026-05-04 05:03 50.83608 14.73379 35965 ft 411 kts 250°
2026-05-04 05:04 50.79754 14.56409 35966 ft 410 kts 250°
2026-05-04 05:04 50.77835 14.47988 35965 ft 410 kts 250°
2026-05-04 05:06 50.70075 14.14223 35968 ft 411 kts 249°
2026-05-04 05:07 50.68117 14.05788 35969 ft 411 kts 249°
2026-05-04 05:07 50.66160 13.97392 35974 ft 411 kts 249°
2026-05-04 05:09 50.57278 13.59671 35987 ft 410 kts 249°
2026-05-04 05:10 50.55295 13.51342 35984 ft 409 kts 249°
2026-05-04 05:10 50.53305 13.43013 35983 ft 409 kts 249°
2026-05-04 05:11 50.51311 13.34696 35991 ft 408 kts 249°
2026-05-04 05:11 50.49306 13.26371 36002 ft 409 kts 249°
2026-05-04 05:12 50.47273 13.18068 36008 ft 408 kts 247°
2026-05-04 05:12 50.44814 13.10101 36010 ft 408 kts 241°
2026-05-04 05:13 50.41804 13.02641 36012 ft 407 kts 235°
2026-05-04 05:13 50.38271 12.95750 36012 ft 407 kts 229°
2026-05-04 05:14 50.34508 12.89148 36007 ft 408 kts 229°
2026-05-04 05:14 50.30750 12.82562 35997 ft 408 kts 229°
2026-05-04 05:15 50.26948 12.75927 35995 ft 409 kts 229°
2026-05-04 05:15 50.23171 12.69359 35992 ft 409 kts 229°
2026-05-04 05:16 50.19393 12.62803 35997 ft 410 kts 229°
2026-05-04 05:16 50.15577 12.56198 35994 ft 410 kts 229°
2026-05-04 05:17 50.11768 12.49630 36000 ft 409 kts 229°
2026-05-04 05:17 50.08125 12.42923 35998 ft 409 kts 234°
2026-05-04 05:18 50.04919 12.35607 35991 ft 409 kts 239°
2026-05-04 05:18 50.02199 12.27903 35990 ft 410 kts 242°
2026-05-04 05:19 49.99544 12.20106 35988 ft 410 kts 242°
2026-05-04 05:19 49.96866 12.12261 35991 ft 411 kts 242°
2026-05-04 05:20 49.94209 12.04494 35989 ft 411 kts 242°
2026-05-04 05:20 49.91530 11.96682 35994 ft 411 kts 242°
2026-05-04 05:21 49.88838 11.88857 35987 ft 411 kts 242°
2026-05-04 05:21 49.86162 11.81105 35985 ft 411 kts 242°
2026-05-04 05:22 49.83473 11.73338 35989 ft 411 kts 242°
2026-05-04 05:22 49.80776 11.65574 35988 ft 411 kts 242°
2026-05-04 05:23 49.78065 11.57788 35984 ft 411 kts 242°
2026-05-04 05:23 49.75346 11.50006 35986 ft 412 kts 242°
2026-05-04 05:24 49.72637 11.42270 35988 ft 412 kts 242°
2026-05-04 05:24 49.69914 11.34522 35994 ft 412 kts 241°
2026-05-04 05:25 49.67178 11.26764 35993 ft 412 kts 241°
2026-05-04 05:25 49.64462 11.19079 35996 ft 411 kts 241°
2026-05-04 05:26 49.61723 11.11349 35998 ft 411 kts 241°
2026-05-04 05:26 49.58986 11.03652 36000 ft 411 kts 241°
2026-05-04 05:28 49.46553 10.74330 36003 ft 412 kts 227°
2026-05-04 05:29 49.42577 10.68026 36007 ft 412 kts 227°
2026-05-04 05:29 49.38624 10.61665 36008 ft 412 kts 228°
2026-05-04 05:31 49.22606 10.36790 36007 ft 412 kts 227°
2026-05-04 05:32 49.18590 10.30552 36002 ft 412 kts 226°
2026-05-04 05:33 49.12820 10.21090 36001 ft 411 kts 231°
2026-05-04 05:33 49.09234 10.14293 35998 ft 411 kts 232°
2026-05-04 05:34 49.05651 10.07520 36001 ft 411 kts 232°
2026-05-04 05:34 49.02088 10.00795 36000 ft 411 kts 232°
2026-05-04 05:35 48.98499 9.94031 35999 ft 411 kts 232°
2026-05-04 05:35 48.94926 9.87316 36001 ft 411 kts 232°
2026-05-04 05:36 48.91343 9.80596 36003 ft 411 kts 232°
2026-05-04 05:36 48.87740 9.73863 36007 ft 412 kts 232°
2026-05-04 05:37 48.84139 9.67155 36006 ft 412 kts 232°
2026-05-04 05:37 48.80533 9.60453 36005 ft 412 kts 232°
2026-05-04 05:38 48.75106 9.50389 36005 ft 412 kts 232°
2026-05-04 05:38 48.71487 9.43701 36002 ft 412 kts 232°
2026-05-04 05:39 48.66053 9.33688 36001 ft 412 kts 231°
2026-05-04 05:40 48.60727 9.23584 35998 ft 412 kts 234°
2026-05-04 05:40 48.57416 9.16558 35999 ft 412 kts 234°
2026-05-04 05:41 48.54143 9.09638 36001 ft 411 kts 234°
2026-05-04 05:41 48.50837 9.02656 36001 ft 411 kts 234°
2026-05-04 05:42 48.47519 8.95663 35999 ft 411 kts 234°
2026-05-04 05:42 48.44223 8.88733 36001 ft 411 kts 234°
2026-05-04 05:43 48.40883 8.81729 35996 ft 411 kts 234°
2026-05-04 05:45 48.27579 8.54006 35402 ft 410 kts 234°
2026-05-04 05:45 48.25922 8.50569 35161 ft 410 kts 234°
2026-05-04 05:47 48.12805 8.28565 35006 ft 410 kts 219°
2026-05-04 05:47 48.08134 8.23686 35014 ft 411 kts 214°
2026-05-04 05:48 48.03339 8.19052 35011 ft 410 kts 214°
2026-05-04 05:48 47.98558 8.14441 35015 ft 409 kts 214°
2026-05-04 05:49 47.93820 8.09889 35010 ft 408 kts 214°
2026-05-04 05:49 47.89049 8.05318 35016 ft 408 kts 214°
2026-05-04 05:51 47.69984 7.87166 35011 ft 408 kts 214°
2026-05-04 05:52 47.65191 7.82628 35011 ft 409 kts 214°
2026-05-04 05:52 47.60425 7.78124 35012 ft 408 kts 213°
2026-05-04 05:54 47.41334 7.60185 35009 ft 407 kts 213°
2026-05-04 05:55 47.36553 7.55713 35005 ft 407 kts 213°
2026-05-04 05:55 47.31799 7.51279 35003 ft 407 kts 213°
2026-05-04 05:56 47.27029 7.46838 35000 ft 407 kts 213°
2026-05-04 05:56 47.22271 7.42320 35003 ft 407 kts 216°
2026-05-04 05:57 47.17820 7.37251 35000 ft 408 kts 221°
2026-05-04 05:57 47.13723 7.31512 35000 ft 408 kts 226°
2026-05-04 05:58 47.10041 7.25188 35000 ft 408 kts 230°
2026-05-04 05:58 47.06520 7.18698 34997 ft 407 kts 230°
2026-05-04 05:59 47.02991 7.12216 34994 ft 407 kts 230°
2026-05-04 05:59 46.99469 7.05778 34995 ft 407 kts 230°
2026-05-04 06:00 46.95938 6.99328 34999 ft 407 kts 230°
2026-05-04 06:00 46.92405 6.92893 35002 ft 409 kts 230°
2026-05-04 06:01 46.88850 6.86445 35011 ft 409 kts 230°
2026-05-04 06:03 46.74590 6.60748 35021 ft 407 kts 230°
2026-05-04 06:05 46.58544 6.32103 35020 ft 407 kts 229°
2026-05-04 06:06 46.54966 6.25756 35021 ft 407 kts 229°
2026-05-04 06:06 46.51404 6.19448 35015 ft 407 kts 229°
2026-05-04 06:07 46.47818 6.13117 35013 ft 407 kts 229°
2026-05-04 06:07 46.44236 6.06804 35006 ft 408 kts 229°
2026-05-04 06:08 46.40613 6.00435 35006 ft 409 kts 229°
2026-05-04 06:08 46.37020 5.94132 35012 ft 409 kts 229°
2026-05-04 06:09 46.33393 5.87787 35014 ft 408 kts 229°
2026-05-04 06:11 46.18938 5.62628 35008 ft 408 kts 229°
2026-05-04 06:13 46.05561 5.36258 35009 ft 410 kts 233°
2026-05-04 06:14 45.94216 5.12789 35009 ft 409 kts 233°
2026-05-04 06:15 45.90947 5.06063 35014 ft 410 kts 233°
2026-05-04 06:15 45.87696 4.99381 35013 ft 410 kts 233°
2026-05-04 06:16 45.84425 4.92677 34987 ft 410 kts 233°
2026-05-04 06:16 45.81149 4.85978 34974 ft 412 kts 233°
2026-05-04 06:17 45.77871 4.79294 34991 ft 412 kts 233°
2026-05-04 06:17 45.74585 4.72604 34995 ft 412 kts 233°
2026-05-04 06:18 45.71298 4.65932 34994 ft 412 kts 233°
2026-05-04 06:20 45.58121 4.39343 34983 ft 412 kts 233°
2026-05-04 06:21 45.49841 4.22764 34980 ft 412 kts 232°
2026-05-04 06:22 45.46499 4.16115 34981 ft 413 kts 232°
2026-05-04 06:25 45.23190 3.69947 34958 ft 413 kts 233°
2026-05-04 06:26 45.19916 3.63283 34959 ft 413 kts 233°
2026-05-04 06:26 45.16639 3.56635 34964 ft 413 kts 233°
2026-05-04 06:27 45.08434 3.40071 34957 ft 411 kts 233°
2026-05-04 06:28 45.05159 3.33487 34954 ft 411 kts 232°
2026-05-04 06:28 45.01951 3.27055 34945 ft 411 kts 232°
2026-05-04 06:29 44.98666 3.20479 34935 ft 411 kts 232°
2026-05-04 06:29 44.95353 3.13857 34939 ft 412 kts 232°
2026-05-04 06:30 44.92062 3.07299 34940 ft 411 kts 232°
2026-05-04 06:30 44.88781 3.00777 34947 ft 410 kts 232°
2026-05-04 06:31 44.85480 2.94232 34947 ft 409 kts 233°
2026-05-04 06:31 44.82369 2.87587 34949 ft 410 kts 235°
2026-05-04 06:33 44.69999 2.60842 34957 ft 408 kts 235°
2026-05-04 06:34 44.66904 2.54184 34950 ft 408 kts 235°
2026-05-04 06:34 44.63823 2.47566 34948 ft 407 kts 235°
2026-05-04 06:36 44.51435 2.21128 34948 ft 405 kts 234°
2026-05-04 06:37 44.48346 2.14570 34943 ft 404 kts 234°
2026-05-04 06:37 44.45264 2.08041 34939 ft 404 kts 234°
2026-05-04 06:38 44.42166 2.01495 34934 ft 404 kts 234°
2026-05-04 06:40 44.29803 1.75509 34916 ft 403 kts 234°
2026-05-04 06:40 44.26752 1.68937 34921 ft 403 kts 236°
2026-05-04 06:41 44.23764 1.62416 34922 ft 403 kts 236°
2026-05-04 06:41 44.20748 1.55852 34920 ft 402 kts 236°
2026-05-04 06:42 44.17735 1.49319 34919 ft 402 kts 236°
2026-05-04 06:44 44.05696 1.23364 34915 ft 401 kts 235°
2026-05-04 06:44 44.02679 1.16897 34917 ft 401 kts 235°
2026-05-04 06:45 43.99652 1.10420 34914 ft 401 kts 235°
2026-05-04 06:45 43.96621 1.03950 34910 ft 401 kts 235°
2026-05-04 06:46 43.93576 0.97464 34912 ft 401 kts 235°
2026-05-04 06:46 43.90524 0.91010 34918 ft 400 kts 234°
2026-05-04 06:48 43.76134 0.67759 34930 ft 398 kts 227°
2026-05-04 06:50 43.62194 0.44182 34941 ft 400 kts 239°
2026-05-04 06:51 43.59511 0.37448 34937 ft 400 kts 239°
2026-05-04 06:51 43.56833 0.30751 34940 ft 399 kts 239°
2026-05-04 06:52 43.54168 0.24105 34935 ft 399 kts 239°
2026-05-04 06:52 43.51472 0.17405 34937 ft 399 kts 239°
2026-05-04 06:53 43.48788 0.10756 34936 ft 398 kts 239°
2026-05-04 06:53 43.46101 0.04113 34943 ft 399 kts 239°
2026-05-04 06:54 43.43413 -0.02515 34931 ft 399 kts 238°
2026-05-04 06:54 43.40713 -0.09157 34933 ft 399 kts 239°
2026-05-04 06:55 43.37997 -0.15825 34936 ft 399 kts 238°
2026-05-04 06:55 43.35292 -0.22445 34935 ft 398 kts 239°
2026-05-04 06:57 43.24465 -0.48810 34919 ft 398 kts 239°
2026-05-04 06:58 43.21743 -0.55398 34919 ft 398 kts 239°
2026-05-04 06:58 43.19018 -0.61981 34918 ft 397 kts 239°
2026-05-04 06:59 43.17659 -0.65260 34797 ft 398 kts 238°
2026-05-04 06:59 43.16293 -0.68552 34607 ft 396 kts 238°
2026-05-04 06:59 43.14955 -0.71769 34301 ft 394 kts 238°
2026-05-04 06:59 43.13603 -0.75021 33750 ft 393 kts 238°
2026-05-04 07:01 43.04086 -0.97795 29575 ft 388 kts 238°
2026-05-04 07:01 43.02752 -1.00967 29013 ft 385 kts 238°
2026-05-04 07:02 43.01424 -1.04127 28450 ft 383 kts 238°
2026-05-04 07:02 43.00109 -1.07250 27887 ft 380 kts 238°
2026-05-04 07:02 42.98788 -1.10390 27323 ft 377 kts 238°
2026-05-04 07:02 42.97488 -1.13473 26769 ft 375 kts 238°
2026-05-04 07:03 42.96209 -1.16505 26212 ft 372 kts 238°
2026-05-04 07:03 42.94913 -1.19572 25640 ft 369 kts 238°
2026-05-04 07:03 42.93643 -1.22577 25083 ft 367 kts 238°
2026-05-04 07:03 42.92362 -1.25602 24516 ft 364 kts 238°
2026-05-04 07:04 42.91114 -1.28548 23959 ft 362 kts 238°
2026-05-04 07:04 42.89860 -1.31506 23406 ft 360 kts 238°
2026-05-04 07:04 42.88599 -1.34479 22843 ft 358 kts 238°
2026-05-04 07:04 42.87365 -1.37381 22297 ft 357 kts 238°
2026-05-04 07:05 42.86134 -1.40278 21801 ft 354 kts 238°
2026-05-04 07:05 42.84900 -1.43176 21319 ft 351 kts 238°
2026-05-04 07:05 42.83673 -1.46054 20900 ft 351 kts 238°
2026-05-04 07:05 42.82458 -1.48900 20492 ft 350 kts 238°
2026-05-04 07:06 42.80020 -1.54606 19665 ft 347 kts 238°
2026-05-04 07:06 42.78828 -1.57396 19261 ft 346 kts 238°
2026-05-04 07:06 42.77614 -1.60227 18850 ft 344 kts 238°
2026-05-04 07:07 42.76407 -1.63043 18462 ft 343 kts 238°
2026-05-04 07:08 42.79689 -1.83654 15774 ft 351 kts 299°
2026-05-04 07:09 42.81017 -1.86466 15377 ft 349 kts 299°
2026-05-04 07:09 42.82318 -1.89235 14962 ft 347 kts 299°
2026-05-04 07:09 42.83601 -1.91975 14541 ft 345 kts 299°
2026-05-04 07:09 42.84889 -1.94725 14121 ft 343 kts 300°
2026-05-04 07:10 42.86152 -1.97421 13700 ft 341 kts 300°
2026-05-04 07:10 42.87429 -2.00152 13277 ft 339 kts 300°
2026-05-04 07:12 42.96450 -2.18099 10520 ft 314 kts 306°
2026-05-04 07:12 42.97787 -2.20407 10262 ft 307 kts 306°
2026-05-04 07:12 42.99084 -2.22664 10005 ft 299 kts 305°
2026-05-04 07:12 43.00340 -2.24865 9745 ft 291 kts 305°
2026-05-04 07:13 43.01560 -2.27013 9499 ft 281 kts 305°
2026-05-04 07:13 43.02735 -2.29086 9248 ft 271 kts 305°
2026-05-04 07:13 43.03862 -2.31081 8993 ft 262 kts 305°
2026-05-04 07:14 43.08232 -2.38842 8005 ft 256 kts 305°
2026-05-04 07:14 43.09324 -2.40782 7754 ft 254 kts 306°
2026-05-04 07:15 43.10394 -2.42685 7502 ft 252 kts 306°
2026-05-04 07:15 43.11463 -2.44589 7252 ft 251 kts 306°
2026-05-04 07:15 43.12629 -2.46359 7002 ft 251 kts 314°
2026-05-04 07:15 43.13842 -2.48035 6744 ft 245 kts 310°
2026-05-04 07:16 43.14835 -2.49874 6496 ft 240 kts 300°
2026-05-04 07:16 43.15678 -2.51825 6275 ft 235 kts 299°
2026-05-04 07:16 43.16452 -2.53732 6071 ft 229 kts 298°
2026-05-04 07:16 43.17191 -2.55645 5863 ft 223 kts 297°
2026-05-04 07:17 43.17889 -2.57512 5658 ft 217 kts 296°
2026-05-04 07:17 43.18563 -2.59353 5445 ft 212 kts 296°
2026-05-04 07:17 43.19208 -2.61131 5234 ft 206 kts 296°
2026-05-04 07:17 43.19834 -2.62862 4995 ft 203 kts 296°
2026-05-04 07:18 43.20453 -2.64578 4787 ft 196 kts 297°
2026-05-04 07:18 43.21052 -2.66236 4469 ft 193 kts 296°
2026-05-04 07:18 43.21641 -2.67867 4155 ft 190 kts 297°
2026-05-04 07:18 43.22227 -2.69483 3844 ft 186 kts 297°
2026-05-04 07:19 43.22790 -2.71036 3532 ft 175 kts 297°
2026-05-04 07:19 43.23314 -2.72478 3291 ft 165 kts 298°
2026-05-04 07:19 43.23821 -2.73869 3046 ft 163 kts 298°
2026-05-04 07:19 43.24329 -2.75262 2815 ft 163 kts 298°
2026-05-04 07:20 43.24838 -2.76655 2576 ft 161 kts 298°
2026-05-04 07:20 43.25322 -2.77983 2333 ft 150 kts 298°
2026-05-04 07:20 43.25770 -2.79212 2095 ft 141 kts 298°
2026-05-04 07:20 43.26214 -2.80424 1895 ft 141 kts 298°
2026-05-04 07:22 43.29268 -2.88769 410 ft 138 kts 297°
2026-05-04 07:22 43.29706 -2.89963 172 ft 136 kts 296°
2026-05-04 07:23 43.30120 -2.91091 136 ft 114 kts 297°
2026-05-04 07:23 43.30349 -2.91724 130 ft 37 kts 296°
2026-05-04 07:23 43.30457 -2.91926 127 ft 13 kts 326°
2026-05-04 07:23 43.30525 -2.91989 127 ft 10 kts 326°
2026-05-04 07:24 43.30568 -2.92029 127 ft 4 kts 326°
2026-05-04 07:24 43.30597 -2.92051 127 ft 4 kts 351°
2026-05-04 07:24 43.30631 -2.92030 128 ft 6 kts 61°
2026-05-04 07:24 43.30627 -2.91965 130 ft 12 kts 110°
2026-05-04 07:25 43.30581 -2.91838 132 ft 14 kts 117°
2026-05-04 07:26 43.30329 -2.91022 142 ft 9 kts 29°
2026-05-04 07:27 43.30350 -2.91008 143 ft 2 kts 25°
2026-05-04 07:27 43.30374 -2.90993 144 ft 5 kts 25°
2026-05-04 07:27 43.30402 -2.90947 146 ft 8 kts 83°
2026-05-04 07:27 43.30407 -2.90851 147 ft 9 kts 86°
2026-05-04 07:28 43.30405 -2.90790 148 ft 4 kts 63°
2026-05-04 07:28 43.30431 -2.90764 148 ft 3 kts 28°
2026-05-04 07:28 43.30448 -2.90752 149 ft 1 kts 26°
2026-05-04 07:28 43.30456 -2.90747 150 ft 1 kts 26°
2026-05-04 07:29 43.30459 -2.90745 150 ft 0 kts 26°